Regional Weather Roundup
Issued by NWS

Home | Current Version | Previous Version | Text Only | Print | Product List | Glossary Off
Versions: 1 2 3 4 5 6 7 8 9 10 11 12 13 14 15 16 17 18 19 20 21 22 23 24 25 26 27 28 29 30 31 32 33 34 35 36 37 38 39 40 41 42 43 44 45 46 47 48 49 50

000
ASUS45 KSLC 250610
RWRUT

UTAH REGIONAL WEATHER ROUNDUP
NATIONAL WEATHER SERVICE SALT LAKE CITY UT
1200 AM MDT FRI JUL 25 2014

UTZ001>011-023>025-250700-

NORTHERN UTAH

CITY           SKY/WX    TMP DP  RH WIND       PRES   REMARKS
HILL AFB       CLEAR     74  43  32 VRB5      30.02R
LOGAN          CLEAR     65  38  36 E5        30.05R
OGDEN          CLEAR     70  45  40 W6        29.98S
PROVO AIRPORT  CLEAR     70  46  43 S7        30.01R
SALT LAKE CITY PTCLDY    74  48  39 NW7       29.97R
VERNAL         PTCLDY    75  52  44 SE6       30.08R
WENDOVER       CLEAR     77  37  24 SW5       30.02R
HEBER CITY     CLEAR     59  46  63 SE5       30.09R
WEST JORDAN    CLEAR     75  48  38 NW12      30.01R

$$

UTZ012>022-026-027-250700-

SOUTHERN UTAH

CITY           SKY/WX    TMP DP  RH WIND       PRES   REMARKS
BRYCE CANYON   MOCLDY    71  45  39 SW8       30.33R
CEDAR CITY     PTCLDY    79  45  29 S13       30.12S
MILFORD        CLEAR     80  40  23 S15       30.04R
MOAB/CYNLANDS  CLEAR     83  51  33 SE16      30.01R
PRICE          CLEAR     73  45  36 NE9       30.12S
ST GEORGE      CLEAR     93  52  24 SE13G18   29.92R HX  90
KANAB            N/A     77  48  36 CALM      30.15R

$$

REGIONAL REPORTS     COLORADO/ARIZONA

CITY           SKY/WX    TMP DP  RH WIND       PRES   REMARKS
CRAIG, CO      CLEAR     59  50  72 VRB3      30.20R
GRAND JUNCTION MOCLDY    77  51  40 SE22G31   30.10R
RIFLE          MOCLDY    73  49  42 E10       30.18S
MONTROSE       CLOUDY    72  52  49 E8        30.24S
CORTEZ         PTCLDY    73  53  49 E7        30.24F
PAGE, AZ       PTCLDY    87  49  26 CALM      30.05R
GRAND CANYON   MOCLDY    65  55  70 NE8       30.29S
KINGMAN        MOCLDY    86  47  25 S5        29.99R
FLAGSTAFF      PTCLDY    57  52  83 CALM      30.33S

$$

REGIONAL REPORTS    NEVADA/IDAHO/WYOMING

CITY           SKY/WX    TMP DP  RH WIND       PRES   REMARKS
LAS VEGAS, NV  PTCLDY    98  47  17 S21G28    29.78R HX  94
ELY            CLEAR     65  20  17 SW6       30.13R
ELKO           CLEAR     67  28  23 E6        30.07R
POCATELLO, ID  CLEAR     59  32  36 SW8       30.09F
BURLEY         CLEAR     54  35  48 SW9       30.09S
EVANSTON, WY   PTCLDY    66  34  30 NE7       30.22S
ROCK SPRINGS   CLEAR     70  28  21 NW3       30.19S

$$


USA.gov is the U.S. government's official web portal to all federal, state and local government web resources and services.